Вернуться в каталог

LEOPARD

АктивенНаукаVLEO
NORAD 67687·PAYLOAD·🇯🇵 Japan

Запущен Nov 20, 1998 с Baikonur Cosmodrome

Loading…

Ближайшие Пролёты (ближайшие 24 часа)

TLE

СвежийSource: Space-Track

Эпоха: Sep 14, 2026, 13:42 UTC

1 67687U 98067YD  26257.57089780  .00145956  00000-0  99454-3 0  9994
2 67687  51.6251 200.1566 0008181 138.9142 221.2474 15.73856885 34210

Отслеживайте LEOPARD в реальном времени с AllMySat

Download on the App Store